Location: Sobotiste
(48.7170°N, 17.4000°E)
Time: 14:19:49
(UTC+02:00)

METEOR M2 - Pass Details

Date: 20 March 2026
Orbit: 817 x 824 km, 98.5° (Epoch: 14 April)

Event Time Altitude Azimuth Distance (km) Brightness Sun altitude
Rises 03:55:17 0° 17° (NNE) 3,373 ? -19.8°
Reaches altitude 10° 03:57:43 10° 22° (NNE) 2,435 ? -19.5°
Maximum altitude 04:03:00 55° 100° (E) 990 ? -18.7°
Drops below altitude 10° 04:08:15 10° 178° (S) 2,416 ? -17.8°
Sets 04:10:38 0° 183° (S) 3,343 ? -17.5°
